PEGASUS DEB, 39914

Orbit data source: Space-Track

PEGASUS DEB, 39914 is space debris in LEO originally from a launch on Thu, 19 May 1994 UTC launched from the Air Force Western Test Range (AFWTR). Debris objects in space refer to the collection of defunct objects orbiting the Earth. Examples of debris include non-operational satellites, rocket bodies, and fragments generated from explosions, collisions, or faulty payload assembly.

Loading next visibility...
Identifier
39914, 1994-029AFM
Orbit
LEO
Country
Flag of USUS
Related business
Manufacturer
Unknown
Mission
Spacecraft
Bus & Motor
Unknown
Mass
Unknown
Launch date (UTC)
1994-05-19 (32 years ago)
Launch vehicle
Unknown
Launch site
Air Force Western Test Range (AFWTR)
Object type
Payload
Rocket body
Debris
Shape & HBR
Unknown shape, 0.1 m
Radar Cross Section
Small (<0.1 m²)

Expand to show TLE details & history
Last TLE update: 1 day ago

TLE from 1 day ago
0 PEGASUS DEB
1 39914U 94029AFM 26173.69529749  .00007523  00000-0  14016-2 0  9991
2 39914  81.3414 327.7850 0329642  99.7517 264.1058 14.35404848619952
Epoch: 2026-06-22T16:41Z
TLE epoch observation values (Epoch: 2026-06-22T16:41:13.703Z)
Latitude
0.00005°
Longitude
166.60039°
Altitude
808.526 km
Speed
7.432 km/s
True Right ascension
21h 51m 08s
True Declination
0° 00' 00"
Sunlit
Object was in full shadow at epoch
Visualization orbit readout
Latitude
Unknown
Longitude
Unknown
Altitude
Unknown
Speed
Unknown
Apparent Right ascension
Unknown
Apparent Declination
Unknown
Sunlit
N/A
Visualization observer readout
Local Sidereal Time
09:32:15
Azimuth
Unknown
Elevation
Unknown
Doppler factor
Unknown
Orbital elements
Apogee altitude
1,006.513 km
Perigee altitude
535.191 km
Semi-major axis
7,148.989 km
Eccentricity
0.03296
Inclination
81.3414°
RAAN
327.785°
Arg. of periapsis
99.7517°
True anomaly
260.36684°
Mean anomaly
264.1058°
Eccentric anomaly
262.23441°
Mean motion
3.59068 °/min
Orbital period
100.26 mins
BSTAR
0.0014016
Loading maneuver chart data...
Computing Atmospheric mass density...

Documentation

Showing up to 5 results
|